QPF
0.01 0.01 0.01 0.01 0.01 0.01 0.02 0.03 0.04 0.03 0.03 0.04 0.03 0.04 0.04 0.04 0.03 0.03 0.03 0.02 0.03 0.03 0.03 0.02 0.01 0.01 0.01 0.02 0.02 0.02 0.01 0.01 0.01 0.01 0.01 0.01 0.02 0.01 0.01 0.01 0.02 0.01 0.01 0.01
0.01 0.01 0.01 0.01 0.01 0.01 0.01 0.02 0.03 0.02 0.03 0.03 0.03 0.03 0.04 0.04 0.04 0.03 0.03 0.03 0.02 0.02 0.02 0.02 0.01 0.01 0.01 0.01 0.02 0.02 0.02 0.02 0.02 0.01 0.01 0.01 0.01 0.01 0.02 0.01 0.01 0.01 0.01 0.00
0.01 0.01 0.01 0.01 0.02 0.02 0.03 0.03 0.03 0.05 0.05 0.03 0.03 0.04 0.05 0.06 0.05 0.04 0.04 0.03 0.02 0.02 0.02 0.02 0.02 0.01 0.01 0.01 0.01 0.01 0.01 0.02 0.02 0.02 0.01 0.00 0.01 0.01 0.02 0.02 0.01 0.01 0.01 0.00
0.02 0.01 0.02 0.03 0.02 0.03 0.04 0.05 0.05 0.06 0.05 0.04 0.05 0.06 0.06 0.06 0.06 0.04 0.03 0.03 0.02 0.02 0.01 0.01 0.01 0.01 0.01 0.00 0.00 0.00 0.00 0.01 0.01 0.02 0.01 0.01 0.01 0.01 0.01 0.01 0.01 0.01 0.01 0.01
0.03 0.03 0.02 0.02 0.02 0.03 0.04 0.06 0.05 0.05 0.04 0.03 0.04 0.05 0.04 0.03 0.03 0.03 0.03 0.03 0.03 0.02 0.02 0.02 0.01 0.01 0.02 0.01 0.00 0.00 0.00 0.00 0.01 0.02 0.02 0.01 0.01 0.01 0.01 0.01 0.01 0.01 0.01 0.01
0.02 0.03 0.02 0.03 0.02 0.02 0.03 0.05 0.04 0.04 0.04 0.03 0.03 0.05 0.04 0.03 0.03 0.03 0.03 0.03 0.03 0.02 0.02 0.02 0.02 0.02 0.02 0.01 0.01 0.01 0.01 0.01 0.01 0.02 0.02 0.02 0.02 0.02 0.01 0.01 0.01 0.01 0.01 0.02
0.01 0.02 0.02 0.02 0.01 0.01 0.03 0.05 0.04 0.04 0.04 0.03 0.04 0.06 0.05 0.04 0.03 0.03 0.03 0.03 0.02 0.02 0.02 0.02 0.02 0.02 0.02 0.02 0.02 0.01 0.01 0.02 0.02 0.02 0.02 0.02 0.02 0.02 0.02 0.02 0.01 0.01 0.01 0.02
0.02 0.02 0.03 0.02 0.01 0.03 0.05 0.04 0.03 0.02 0.02 0.03 0.03 0.03 0.03 0.03 0.03 0.03 0.03 0.02 0.02 0.02 0.02 0.02 0.02 0.03 0.03 0.03 0.03 0.02 0.02 0.03 0.03 0.03 0.03 0.03 0.03 0.03 0.03 0.03 0.03 0.02 0.02 0.02
0.02 0.02 0.02 0.02 0.03 0.03 0.03 0.03 0.02 0.02 0.02 0.03 0.03 0.03 0.03 0.03 0.03 0.03 0.02 0.02 0.02 0.02 0.02 0.02 0.03 0.03 0.04 0.04 0.04 0.03 0.02 0.02 0.02 0.02 0.03 0.04 0.04 0.04 0.04 0.04 0.04 0.04 0.03 0.03
0.02 0.02 0.02 0.01 0.01 0.01 0.01 0.01 0.01 0.02 0.02 0.03 0.04 0.03 0.03 0.03 0.02 0.02 0.02 0.02 0.02 0.02 0.02 0.03 0.03 0.03 0.04 0.04 0.04 0.04 0.03 0.02 0.02 0.02 0.02 0.03 0.03 0.04 0.04 0.04 0.04 0.04 0.04 0.04
0.01 0.01 0.01 0.01 0.00 0.00 0.00 0.00 0.00 0.01 0.01 0.02 0.03 0.02 0.02 0.02 0.02 0.02 0.01 0.02 0.02 0.02 0.03 0.03 0.03 0.03 0.04 0.04 0.04 0.03 0.03 0.03 0.03 0.02 0.02 0.02 0.02 0.03 0.04 0.04 0.04 0.04 0.04 0.04
0.01 0.01 0.01 0.01 0.01 0.01 0.01 0.01 0.01 0.01 0.01 0.01 0.02 0.02 0.02 0.02 0.02 0.02 0.02 0.01 0.02 0.02 0.03 0.03 0.03 0.04 0.05 0.05 0.05 0.04 0.04 0.03 0.03 0.02 0.02 0.02 0.02 0.02 0.03 0.04 0.04 0.04 0.04 0.04
0.01 0.01 0.01 0.01 0.00 0.00 0.00 0.01 0.01 0.01 0.01 0.01 0.01 0.02 0.02 0.02 0.02 0.02 0.02 0.02 0.02 0.02 0.03 0.03 0.04 0.04 0.05 0.05 0.05 0.05 0.04 0.04 0.03 0.02 0.02 0.02 0.02 0.02 0.02 0.03 0.03 0.03 0.03 0.03
0.00 0.01 0.00 0.00 0.00 0.00 0.00 0.01 0.00 0.01 0.01 0.01 0.02 0.02 0.02 0.02 0.02 0.02 0.03 0.03 0.03 0.02 0.03 0.03 0.04 0.04 0.04 0.05 0.05 0.05 0.05 0.05 0.04 0.03 0.03 0.03 0.03 0.03 0.03 0.02 0.02 0.03 0.03 0.03
0.00 0.01 0.01 0.01 0.01 0.00 0.01 0.01 0.01 0.01 0.01 0.01 0.01 0.02 0.02 0.02 0.02 0.03 0.03 0.03 0.03 0.03 0.03 0.04 0.04 0.04 0.04 0.05 0.05 0.05 0.04 0.04 0.04 0.04 0.04 0.03 0.04 0.04 0.04 0.03 0.03 0.03 0.03 0.03
0.01 0.01 0.01 0.01 0.01 0.01 0.01 0.01 0.01 0.01 0.01 0.01 0.01 0.02 0.02 0.02 0.03 0.03 0.03 0.03 0.03 0.04 0.04 0.04 0.05 0.05 0.04 0.04 0.04 0.04 0.05 0.05 0.05 0.04 0.04 0.04 0.04 0.04 0.04 0.04 0.04 0.04 0.03 0.03
0.01 0.01 0.01 0.01 0.01 0.01 0.01 0.01 0.01 0.01 0.01 0.01 0.01 0.02 0.02 0.02 0.02 0.02 0.03 0.03 0.03 0.04 0.04 0.05 0.05 0.05 0.04 0.04 0.05 0.05 0.05 0.05 0.05 0.05 0.05 0.05 0.05 0.04 0.04 0.03 0.03 0.03 0.03 0.03
0.01 0.01 0.02 0.02 0.02 0.01 0.01 0.01 0.01 0.01 0.01 0.01 0.01 0.01 0.01 0.02 0.02 0.02 0.03 0.03 0.02 0.03 0.04 0.05 0.05 0.04 0.04 0.04 0.05 0.05 0.05 0.05 0.05 0.05 0.05 0.05 0.05 0.04 0.03 0.03 0.03 0.03 0.04 0.04
0.01 0.01 0.01 0.01 0.02 0.02 0.02 0.02 0.02 0.02 0.02 0.02 0.01 0.01 0.02 0.02 0.02 0.02 0.02 0.02 0.02 0.03 0.04 0.04 0.04 0.03 0.03 0.04 0.04 0.04 0.04 0.04 0.04 0.04 0.04 0.04 0.04 0.03 0.03 0.03 0.03 0.03 0.03 0.03
0.01 0.01 0.01 0.01 0.02 0.02 0.02 0.02 0.02 0.02 0.02 0.02 0.02 0.01 0.02 0.02 0.02 0.02 0.02 0.02 0.03 0.04 0.04 0.04 0.03 0.03 0.03 0.03 0.03 0.03 0.04 0.04 0.04 0.04 0.03 0.03 0.03 0.03 0.03 0.02 0.02 0.02 0.02 0.02
0.01 0.01 0.01 0.01 0.01 0.02 0.02 0.02 0.02 0.02 0.02 0.02 0.02 0.02 0.02 0.03 0.03 0.02 0.02 0.03 0.04 0.04 0.04 0.03 0.03 0.03 0.04 0.03 0.03 0.03 0.03 0.04 0.04 0.04 0.03 0.03 0.02 0.02 0.02 0.01 0.01 0.01 0.02 0.01
0.01 0.01 0.01 0.01 0.01 0.01 0.02 0.02 0.02 0.02 0.02 0.02 0.02 0.02 0.02 0.02 0.02 0.02 0.03 0.03 0.04 0.03 0.03 0.03 0.03 0.04 0.04 0.04 0.04 0.04 0.04 0.03 0.03 0.03 0.03 0.02 0.02 0.02 0.02 0.01 0.01 0.01 0.01 0.01
0.01 0.01 0.01 0.01 0.01 0.01 0.01 0.02 0.02 0.02 0.02 0.02 0.02 0.02 0.02 0.02 0.02 0.02 0.02 0.02 0.02 0.02 0.03 0.03 0.03 0.03 0.03 0.03 0.03 0.03 0.03 0.03 0.03 0.03 0.02 0.02 0.02 0.02 0.02 0.01 0.01 0.01 0.01 0.01
0.00 0.00 0.01 0.01 0.00 0.00 0.01 0.01 0.01 0.01 0.01 0.01 0.01 0.01 0.01 0.01 0.01 0.01 0.02 0.02 0.02 0.02 0.02 0.03 0.03 0.03 0.03 0.03 0.03 0.02 0.02 0.03 0.03 0.02 0.02 0.02 0.02 0.01 0.01 0.01 0.01 0.01 0.00 0.00
0.00 0.00 0.00 0.00 0.00 0.00 0.00 0.00 0.00 0.00 0.01 0.01 0.01 0.01 0.01 0.02 0.02 0.02 0.02 0.02 0.02 0.02 0.02 0.02 0.02 0.03 0.03 0.02 0.02 0.02 0.02 0.02 0.02 0.02 0.02 0.02 0.02 0.01 0.01 0.01 0.01 0.01 0.01 0.01
0.00 0.00 0.00 0.00 0.01 0.00 0.00 0.00 0.00 0.00 0.01 0.01 0.01 0.01 0.01 0.02 0.02 0.02 0.02 0.02 0.02 0.02 0.02 0.02 0.02 0.02 0.02 0.02 0.02 0.02 0.02 0.02 0.02 0.02 0.02 0.01 0.01 0.01 0.01 0.01 0.01 0.01 0.01 0.01
0.01 0.01 0.00 0.00 0.00 0.00 0.00 0.00 0.01 0.01 0.01 0.01 0.01 0.01 0.01 0.01 0.01 0.01 0.01 0.01 0.01 0.02 0.02 0.02 0.02 0.01 0.02 0.01 0.01 0.01 0.01 0.02 0.02 0.02 0.02 0.01 0.01 0.01 0.01 0.01 0.01 0.01 0.01 0.01
MSLP
1030.73 1030.97 1031.27 1031.63 1032.03 1032.46 1032.88 1033.27 1033.61 1033.86 1034.04 1034.11 1034.08 1033.95 1033.71 1033.38 1032.95 1032.44 1031.84 1031.18 1030.46 1029.71 1028.94 1028.17 1027.40 1026.64 1025.89 1025.15 1024.39 1023.61 1022.79 1021.94 1021.04 1020.13 1019.21 1018.32 1017.50 1016.76 1016.15 1015.67 1015.35 1015.18 1015.15 1015.23
1031.47 1031.73 1032.04 1032.40 1032.79 1033.19 1033.58 1033.94 1034.24 1034.46 1034.60 1034.64 1034.59 1034.45 1034.21 1033.88 1033.47 1032.97 1032.40 1031.76 1031.07 1030.33 1029.56 1028.78 1027.98 1027.18 1026.38 1025.57 1024.74 1023.89 1023.02 1022.12 1021.19 1020.26 1019.33 1018.42 1017.58 1016.82 1016.17 1015.64 1015.25 1015.01 1014.90 1014.92
1032.11 1032.36 1032.66 1032.98 1033.34 1033.72 1034.09 1034.42 1034.70 1034.92 1035.05 1035.10 1035.05 1034.91 1034.68 1034.36 1033.96 1033.48 1032.92 1032.30 1031.62 1030.88 1030.11 1029.31 1028.48 1027.63 1026.77 1025.89 1024.99 1024.07 1023.14 1022.19 1021.22 1020.26 1019.32 1018.41 1017.56 1016.78 1016.10 1015.54 1015.10 1014.79 1014.62 1014.57
1032.66 1032.87 1033.12 1033.40 1033.73 1034.07 1034.42 1034.76 1035.05 1035.28 1035.43 1035.49 1035.46 1035.33 1035.10 1034.78 1034.38 1033.89 1033.34 1032.71 1032.03 1031.29 1030.51 1029.69 1028.84 1027.95 1027.03 1026.09 1025.13 1024.15 1023.15 1022.15 1021.15 1020.17 1019.21 1018.30 1017.44 1016.65 1015.95 1015.35 1014.86 1014.49 1014.24 1014.12
1033.10 1033.26 1033.45 1033.69 1033.98 1034.30 1034.65 1034.99 1035.30 1035.56 1035.74 1035.82 1035.80 1035.67 1035.43 1035.10 1034.67 1034.16 1033.59 1032.95 1032.25 1031.51 1030.72 1029.89 1029.02 1028.12 1027.17 1026.19 1025.18 1024.16 1023.11 1022.07 1021.04 1020.03 1019.06 1018.13 1017.26 1016.45 1015.72 1015.08 1014.53 1014.09 1013.77 1013.57
1033.45 1033.54 1033.68 1033.88 1034.14 1034.46 1034.81 1035.17 1035.50 1035.78 1035.99 1036.09 1036.07 1035.93 1035.66 1035.29 1034.82 1034.28 1033.66 1033.00 1032.29 1031.54 1030.75 1029.93 1029.07 1028.17 1027.22 1026.23 1025.21 1024.16 1023.09 1022.02 1020.97 1019.94 1018.95 1018.00 1017.11 1016.27 1015.50 1014.81 1014.19 1013.67 1013.25 1012.95
1033.70 1033.75 1033.85 1034.02 1034.27 1034.58 1034.94 1035.32 1035.68 1035.98 1036.20 1036.30 1036.26 1036.09 1035.79 1035.37 1034.85 1034.25 1033.60 1032.90 1032.18 1031.44 1030.67 1029.87 1029.05 1028.17 1027.26 1026.29 1025.27 1024.23 1023.16 1022.08 1021.02 1019.97 1018.96 1017.99 1017.07 1016.19 1015.37 1014.61 1013.91 1013.30 1012.78 1012.37
1033.92 1033.94 1034.01 1034.16 1034.40 1034.71 1035.08 1035.47 1035.84 1036.15 1036.36 1036.45 1036.39 1036.18 1035.83 1035.36 1034.78 1034.14 1033.45 1032.74 1032.01 1031.29 1030.55 1029.80 1029.02 1028.21 1027.34 1026.42 1025.44 1024.42 1023.37 1022.31 1021.24 1020.19 1019.16 1018.17 1017.21 1016.29 1015.41 1014.58 1013.79 1013.08 1012.45 1011.92
1034.13 1034.14 1034.20 1034.34 1034.58 1034.89 1035.26 1035.64 1036.00 1036.30 1036.50 1036.56 1036.46 1036.21 1035.81 1035.29 1034.68 1034.00 1033.29 1032.58 1031.87 1031.17 1030.48 1029.79 1029.08 1028.33 1027.53 1026.66 1025.74 1024.77 1023.75 1022.70 1021.65 1020.60 1019.57 1018.56 1017.57 1016.61 1015.68 1014.78 1013.92 1013.11 1012.38 1011.74
1034.38 1034.39 1034.45 1034.59 1034.82 1035.12 1035.47 1035.83 1036.16 1036.43 1036.59 1036.61 1036.47 1036.18 1035.75 1035.21 1034.57 1033.89 1033.18 1032.48 1031.81 1031.15 1030.52 1029.89 1029.24 1028.55 1027.82 1027.02 1026.15 1025.22 1024.25 1023.24 1022.21 1021.17 1020.15 1019.14 1018.14 1017.17 1016.20 1015.26 1014.34 1013.46 1012.64 1011.90
1034.68 1034.70 1034.77 1034.90 1035.11 1035.39 1035.70 1036.02 1036.30 1036.52 1036.63 1036.61 1036.44 1036.13 1035.68 1035.13 1034.50 1033.83 1033.15 1032.49 1031.85 1031.24 1030.66 1030.08 1029.49 1028.86 1028.18 1027.44 1026.62 1025.74 1024.81 1023.84 1022.84 1021.84 1020.84 1019.85 1018.87 1017.90 1016.93 1015.97 1015.03 1014.11 1013.24 1012.44
1034.99 1035.02 1035.10 1035.23 1035.42 1035.65 1035.91 1036.17 1036.40 1036.55 1036.61 1036.55 1036.35 1036.03 1035.59 1035.05 1034.46 1033.82 1033.19 1032.57 1031.98 1031.42 1030.88 1030.34 1029.78 1029.19 1028.55 1027.84 1027.06 1026.22 1025.33 1024.41 1023.46 1022.51 1021.55 1020.61 1019.67 1018.74 1017.80 1016.87 1015.94 1015.02 1014.14 1013.31
1035.26 1035.31 1035.39 1035.51 1035.66 1035.85 1036.05 1036.25 1036.41 1036.50 1036.51 1036.42 1036.20 1035.88 1035.46 1034.97 1034.42 1033.84 1033.26 1032.68 1032.14 1031.61 1031.09 1030.57 1030.03 1029.46 1028.83 1028.14 1027.39 1026.59 1025.74 1024.87 1023.98 1023.09 1022.20 1021.33 1020.46 1019.59 1018.72 1017.85 1016.97 1016.10 1015.24 1014.44
1035.41 1035.48 1035.56 1035.67 1035.79 1035.94 1036.08 1036.21 1036.31 1036.35 1036.32 1036.20 1035.98 1035.68 1035.29 1034.84 1034.34 1033.82 1033.29 1032.77 1032.25 1031.74 1031.24 1030.72 1030.18 1029.60 1028.98 1028.30 1027.57 1026.80 1026.00 1025.18 1024.36 1023.55 1022.74 1021.95 1021.17 1020.39 1019.61 1018.82 1018.02 1017.23 1016.44 1015.69
1035.39 1035.47 1035.56 1035.66 1035.77 1035.88 1035.98 1036.06 1036.11 1036.10 1036.04 1035.91 1035.70 1035.41 1035.06 1034.66 1034.21 1033.74 1033.25 1032.76 1032.27 1031.77 1031.26 1030.74 1030.18 1029.60 1028.97 1028.30 1027.59 1026.86 1026.11 1025.36 1024.61 1023.88 1023.17 1022.47 1021.79 1021.11 1020.42 1019.73 1019.04 1018.33 1017.64 1016.97
1035.16 1035.26 1035.37 1035.47 1035.58 1035.67 1035.75 1035.80 1035.82 1035.79 1035.70 1035.56 1035.36 1035.10 1034.78 1034.41 1034.01 1033.57 1033.11 1032.64 1032.16 1031.66 1031.14 1030.61 1030.04 1029.45 1028.83 1028.18 1027.51 1026.82 1026.13 1025.45 1024.78 1024.13 1023.51 1022.91 1022.32 1021.73 1021.15 1020.56 1019.96 1019.35 1018.75 1018.17
1034.74 1034.88 1035.01 1035.15 1035.27 1035.37 1035.45 1035.49 1035.49 1035.45 1035.35 1035.21 1035.01 1034.75 1034.45 1034.11 1033.73 1033.31 1032.87 1032.41 1031.93 1031.43 1030.91 1030.37 1029.80 1029.22 1028.62 1028.00 1027.37 1026.74 1026.12 1025.51 1024.93 1024.36 1023.82 1023.30 1022.80 1022.30 1021.79 1021.29 1020.78 1020.26 1019.75 1019.26
1034.22 1034.39 1034.58 1034.76 1034.91 1035.05 1035.14 1035.18 1035.18 1035.13 1035.03 1034.88 1034.67 1034.42 1034.12 1033.78 1033.40 1032.99 1032.55 1032.09 1031.61 1031.11 1030.59 1030.06 1029.51 1028.95 1028.39 1027.82 1027.25 1026.69 1026.14 1025.61 1025.10 1024.62 1024.15 1023.70 1023.26 1022.82 1022.38 1021.94 1021.50 1021.07 1020.64 1020.23
1033.68 1033.91 1034.16 1034.40 1034.61 1034.77 1034.89 1034.95 1034.95 1034.90 1034.78 1034.61 1034.38 1034.11 1033.80 1033.44 1033.06 1032.64 1032.19 1031.73 1031.25 1030.76 1030.25 1029.74 1029.23 1028.71 1028.20 1027.69 1027.19 1026.70 1026.23 1025.77 1025.34 1024.91 1024.50 1024.10 1023.71 1023.32 1022.93 1022.55 1022.16 1021.78 1021.42 1021.08
1033.24 1033.54 1033.85 1034.15 1034.41 1034.62 1034.76 1034.83 1034.82 1034.75 1034.61 1034.41 1034.16 1033.85 1033.51 1033.13 1032.72 1032.28 1031.83 1031.37 1030.89 1030.41 1029.93 1029.46 1028.98 1028.52 1028.06 1027.62 1027.19 1026.77 1026.37 1025.97 1025.59 1025.22 1024.86 1024.50 1024.14 1023.79 1023.43 1023.09 1022.74 1022.42 1022.11 1021.82
1032.97 1033.34 1033.71 1034.06 1034.36 1034.59 1034.74 1034.81 1034.79 1034.69 1034.51 1034.27 1033.97 1033.62 1033.24 1032.83 1032.40 1031.95 1031.49 1031.02 1030.56 1030.10 1029.64 1029.20 1028.77 1028.36 1027.96 1027.58 1027.20 1026.84 1026.49 1026.15 1025.81 1025.48 1025.15 1024.82 1024.50 1024.17 1023.86 1023.54 1023.25 1022.96 1022.70 1022.46
1032.90 1033.33 1033.74 1034.13 1034.44 1034.68 1034.81 1034.85 1034.80 1034.65 1034.43 1034.14 1033.79 1033.41 1032.98 1032.54 1032.09 1031.62 1031.16 1030.70 1030.25 1029.81 1029.38 1028.97 1028.58 1028.20 1027.85 1027.50 1027.17 1026.85 1026.53 1026.22 1025.91 1025.61 1025.31 1025.01 1024.72 1024.43 1024.15 1023.88 1023.63 1023.40 1023.18 1022.99
1033.00 1033.46 1033.91 1034.29 1034.60 1034.80 1034.90 1034.90 1034.79 1034.59 1034.31 1033.97 1033.58 1033.15 1032.70 1032.24 1031.77 1031.30 1030.84 1030.39 1029.95 1029.52 1029.12 1028.73 1028.36 1028.00 1027.67 1027.34 1027.03 1026.72 1026.42 1026.13 1025.85 1025.56 1025.29 1025.02 1024.76 1024.52 1024.28 1024.07 1023.87 1023.68 1023.52 1023.37
1033.22 1033.69 1034.12 1034.48 1034.74 1034.90 1034.94 1034.86 1034.70 1034.44 1034.11 1033.72 1033.30 1032.84 1032.38 1031.90 1031.43 1030.97 1030.51 1030.07 1029.64 1029.23 1028.83 1028.45 1028.08 1027.72 1027.38 1027.06 1026.74 1026.44 1026.14 1025.86 1025.58 1025.32 1025.07 1024.83 1024.61 1024.42 1024.23 1024.07 1023.93 1023.80 1023.69 1023.58
1033.46 1033.92 1034.31 1034.62 1034.81 1034.88 1034.85 1034.71 1034.47 1034.16 1033.78 1033.37 1032.92 1032.46 1031.99 1031.52 1031.06 1030.61 1030.16 1029.73 1029.31 1028.89 1028.49 1028.10 1027.72 1027.34 1026.99 1026.64 1026.31 1025.99 1025.69 1025.40 1025.14 1024.89 1024.67 1024.47 1024.29 1024.14 1024.02 1023.91 1023.82 1023.74 1023.66 1023.59
1033.68 1034.09 1034.42 1034.64 1034.74 1034.74 1034.62 1034.40 1034.11 1033.75 1033.35 1032.92 1032.46 1032.01 1031.55 1031.10 1030.66 1030.22 1029.79 1029.36 1028.94 1028.51 1028.10 1027.68 1027.28 1026.88 1026.49 1026.12 1025.76 1025.43 1025.12 1024.83 1024.57 1024.34 1024.15 1023.98 1023.85 1023.74 1023.66 1023.59 1023.54 1023.50 1023.45 1023.39
1033.82 1034.16 1034.40 1034.53 1034.55 1034.45 1034.26 1033.99 1033.65 1033.26 1032.84 1032.41 1031.97 1031.53 1031.09 1030.66 1030.24 1029.82 1029.39 1028.96 1028.53 1028.09 1027.65 1027.21 1026.77 1026.34 1025.93 1025.53 1025.15 1024.81 1024.49 1024.21 1023.96 1023.75 1023.58 1023.44 1023.34 1023.26 1023.20 1023.16 1023.13 1023.10 1023.05 1022.99
Thickness
5369 5372 5371 5370 5371 5369 5366 5367 5367 5376 5377 5378 5380 5381 5387 5393 5397 5402 5407 5412 5416 5420 5424 5428 5433 5437 5441 5444 5447 5450 5453 5455 5458 5460 5463 5465 5468 5470 5472 5473 5474 5475 5475 5476
5356 5366 5362 5360 5360 5359 5359 5357 5356 5360 5362 5364 5365 5368 5373 5376 5381 5386 5391 5397 5402 5406 5410 5415 5419 5424 5428 5432 5435 5438 5441 5443 5446 5449 5452 5454 5457 5459 5460 5461 5463 5464 5464 5465
5346 5352 5352 5345 5342 5342 5341 5339 5340 5340 5342 5347 5351 5355 5357 5361 5365 5370 5375 5381 5387 5392 5396 5401 5405 5410 5415 5419 5423 5426 5429 5432 5434 5437 5440 5443 5446 5447 5449 5450 5451 5452 5453 5454
5331 5333 5324 5332 5331 5330 5328 5325 5323 5324 5327 5330 5335 5340 5344 5348 5351 5356 5362 5368 5374 5379 5385 5389 5393 5397 5402 5406 5410 5414 5417 5420 5422 5425 5428 5431 5434 5436 5438 5439 5440 5441 5442 5444
5314 5313 5319 5320 5320 5315 5313 5314 5311 5310 5314 5318 5322 5331 5338 5341 5342 5345 5351 5357 5363 5368 5373 5378 5382 5386 5390 5395 5398 5402 5405 5408 5411 5414 5417 5420 5422 5425 5426 5427 5429 5430 5431 5433
5297 5299 5306 5304 5307 5308 5306 5302 5299 5298 5300 5303 5307 5313 5322 5328 5330 5335 5341 5346 5352 5357 5363 5368 5372 5376 5380 5384 5387 5391 5394 5397 5400 5402 5405 5409 5411 5414 5415 5417 5418 5419 5420 5422
5282 5284 5289 5287 5292 5297 5290 5286 5285 5286 5287 5288 5291 5294 5304 5312 5318 5324 5329 5335 5340 5346 5351 5356 5361 5365 5369 5373 5377 5380 5383 5386 5389 5391 5394 5397 5400 5402 5404 5405 5407 5408 5409 5411
5272 5271 5276 5279 5279 5273 5270 5271 5273 5275 5276 5279 5283 5288 5295 5302 5307 5313 5318 5324 5329 5334 5340 5345 5350 5355 5359 5363 5367 5370 5373 5375 5377 5380 5384 5387 5389 5391 5393 5394 5395 5397 5399 5400
5265 5267 5268 5266 5264 5262 5261 5261 5263 5264 5266 5268 5273 5278 5285 5291 5296 5301 5306 5311 5317 5322 5329 5334 5338 5343 5347 5352 5356 5359 5362 5364 5367 5370 5373 5376 5378 5380 5382 5383 5384 5386 5388 5390
5257 5260 5259 5257 5255 5254 5253 5253 5254 5256 5258 5260 5263 5268 5274 5280 5285 5290 5295 5300 5305 5311 5317 5322 5327 5331 5335 5340 5344 5348 5351 5354 5356 5359 5362 5365 5368 5370 5372 5373 5375 5377 5379 5381
5245 5248 5248 5250 5247 5245 5245 5246 5247 5249 5250 5252 5255 5260 5264 5269 5274 5279 5284 5289 5293 5298 5304 5310 5315 5320 5324 5328 5333 5336 5340 5343 5346 5349 5352 5355 5358 5360 5363 5365 5367 5369 5371 5372
5237 5238 5235 5238 5239 5237 5237 5238 5239 5240 5243 5245 5246 5250 5255 5260 5264 5268 5273 5278 5283 5288 5293 5298 5303 5309 5313 5318 5322 5326 5330 5333 5336 5339 5342 5345 5347 5350 5353 5356 5359 5362 5363 5364
5230 5230 5229 5230 5231 5229 5228 5229 5231 5232 5234 5237 5240 5242 5246 5250 5255 5259 5264 5268 5273 5278 5283 5288 5293 5298 5303 5307 5311 5315 5319 5322 5325 5329 5332 5335 5338 5340 5343 5346 5349 5351 5353 5355
5224 5223 5223 5223 5221 5221 5220 5222 5223 5225 5226 5228 5232 5235 5238 5242 5246 5250 5254 5258 5263 5268 5274 5278 5283 5288 5292 5296 5301 5304 5308 5312 5316 5319 5322 5325 5328 5330 5332 5335 5337 5338 5341 5343
5218 5216 5214 5214 5214 5213 5213 5214 5216 5217 5219 5222 5224 5227 5230 5234 5238 5242 5245 5250 5255 5259 5264 5269 5274 5278 5282 5286 5290 5294 5298 5301 5305 5308 5312 5314 5317 5319 5321 5323 5325 5327 5328 5330
5213 5211 5210 5208 5207 5206 5206 5206 5206 5209 5210 5212 5215 5219 5222 5225 5230 5234 5238 5241 5245 5250 5255 5259 5264 5268 5272 5276 5280 5283 5287 5291 5294 5298 5301 5304 5306 5308 5310 5311 5313 5315 5316 5318
5205 5205 5203 5202 5200 5199 5198 5198 5199 5201 5202 5204 5207 5211 5214 5218 5223 5226 5229 5233 5236 5240 5245 5250 5254 5258 5262 5266 5270 5273 5277 5280 5284 5287 5289 5292 5295 5297 5299 5300 5302 5304 5305 5307
5197 5196 5195 5193 5192 5192 5193 5193 5194 5194 5195 5198 5201 5204 5207 5211 5214 5218 5222 5225 5230 5233 5237 5241 5245 5249 5253 5257 5261 5265 5267 5270 5272 5275 5277 5280 5283 5285 5287 5289 5291 5292 5294 5296
5193 5191 5190 5189 5188 5187 5187 5187 5188 5189 5191 5192 5195 5197 5200 5203 5207 5210 5214 5217 5221 5225 5229 5233 5237 5240 5244 5248 5252 5255 5257 5259 5262 5264 5266 5269 5271 5273 5275 5277 5279 5281 5283 5285
5189 5188 5187 5185 5184 5183 5182 5182 5183 5184 5185 5186 5188 5191 5194 5197 5199 5203 5206 5209 5213 5216 5220 5224 5228 5231 5234 5238 5242 5245 5247 5249 5251 5253 5255 5258 5259 5261 5264 5266 5268 5270 5272 5273
5185 5184 5182 5181 5179 5179 5178 5177 5177 5178 5180 5180 5182 5184 5187 5190 5193 5196 5199 5203 5206 5209 5213 5217 5219 5222 5225 5229 5233 5235 5237 5239 5242 5243 5245 5247 5249 5251 5253 5255 5257 5259 5261 5262
5179 5178 5177 5175 5174 5174 5173 5172 5172 5173 5174 5175 5177 5179 5181 5184 5187 5190 5192 5195 5198 5202 5205 5208 5210 5214 5217 5220 5223 5225 5227 5229 5231 5233 5235 5237 5239 5241 5243 5245 5247 5248 5250 5251
5174 5173 5171 5170 5169 5168 5167 5167 5167 5167 5168 5170 5171 5173 5174 5177 5179 5182 5185 5188 5190 5194 5197 5199 5202 5206 5210 5211 5213 5215 5217 5219 5221 5223 5225 5227 5229 5231 5233 5235 5236 5238 5239 5241
5168 5167 5165 5164 5163 5162 5162 5163 5162 5162 5162 5164 5166 5167 5168 5170 5173 5174 5176 5180 5183 5187 5189 5191 5195 5198 5200 5201 5203 5205 5207 5209 5211 5213 5215 5217 5219 5221 5223 5225 5226 5228 5229 5230
5163 5160 5159 5158 5157 5158 5158 5157 5157 5157 5158 5159 5160 5161 5162 5163 5164 5167 5169 5171 5175 5178 5180 5182 5185 5188 5189 5191 5193 5195 5197 5199 5201 5203 5205 5207 5209 5211 5213 5215 5216 5218 5220 5221
5156 5154 5153 5152 5151 5151 5151 5151 5151 5151 5152 5153 5154 5155 5156 5157 5159 5160 5162 5164 5167 5170 5171 5173 5175 5178 5180 5182 5184 5185 5187 5189 5191 5193 5195 5197 5199 5201 5203 5205 5207 5209 5210 5212
5150 5148 5148 5147 5147 5146 5145 5145 5144 5145 5145 5146 5147 5148 5149 5151 5152 5154 5155 5157 5159 5161 5163 5165 5166 5169 5171 5173 5175 5177 5178 5180 5182 5183 5185 5187 5190 5192 5194 5196 5198 5200 5201 5203